Time,TemperatureF,DewpointF,PressureIn,WindDirection,WindDirectionDegrees,WindSpeedMPH,WindSpeedGustMPH,Humidity,HourlyPrecipIn,Conditions,Clouds,dailyrainin,SoftwareType,DateUTC
2013-08-25 00:08:00,51.4,48.0,30.34,WNW,282,0.0,-999.0,89,-99.99,,,0.00,weatherlink.com 1.10,2013-08-25 04:08:00,
2013-08-25 00:23:00,51.0,48.0,30.34,WNW,282,0.0,-999.0,90,-99.99,,,0.00,weatherlink.com 1.10,2013-08-25 04:23:00,
2013-08-25 00:38:00,50.9,48.0,30.34,WNW,282,0.0,-999.0,91,-99.99,,,0.00,weatherlink.com 1.10,2013-08-25 04:38:00,
2013-08-25 00:53:00,51.0,49.0,30.35,WNW,282,0.0,-999.0,91,-99.99,,,0.00,weatherlink.com 1.10,2013-08-25 04:53:00,
2013-08-25 01:08:00,50.6,48.0,30.35,WNW,282,0.0,-999.0,91,-99.99,,,0.00,weatherlink.com 1.10,2013-08-25 05:08:00,
2013-08-25 01:23:00,50.1,48.0,30.34,WNW,282,0.0,-999.0,92,-99.99,,,0.00,weatherlink.com 1.10,2013-08-25 05:23:00,
2013-08-25 01:38:00,49.9,48.0,30.34,WNW,282,0.0,-999.0,93,-99.99,,,0.00,weatherlink.com 1.10,2013-08-25 05:38:00,
2013-08-25 01:53:00,49.7,48.0,30.34,WNW,282,0.0,-999.0,93,-99.99,,,0.00,weatherlink.com 1.10,2013-08-25 05:53:00,
2013-08-25 02:08:00,49.6,48.0,30.34,WNW,282,0.0,-999.0,94,-99.99,,,0.00,weatherlink.com 1.10,2013-08-25 06:08:00,
2013-08-25 02:23:00,49.1,48.0,30.34,WNW,282,0.0,-999.0,94,-99.99,,,0.00,weatherlink.com 1.10,2013-08-25 06:23:00,
2013-08-25 02:38:00,48.8,47.0,30.34,WNW,282,0.0,-999.0,94,-99.99,,,0.00,weatherlink.com 1.10,2013-08-25 06:38:00,
2013-08-25 02:53:00,48.4,47.0,30.34,WNW,282,0.0,-999.0,94,-99.99,,,0.00,weatherlink.com 1.10,2013-08-25 06:53:00,
2013-08-25 03:08:00,48.2,47.0,30.34,WNW,282,0.0,-999.0,95,-99.99,,,0.00,weatherlink.com 1.10,2013-08-25 07:08:00,
2013-08-25 03:23:00,47.7,46.0,30.34,WNW,282,0.0,-999.0,94,-99.99,,,0.00,weatherlink.com 1.10,2013-08-25 07:23:00,
2013-08-25 03:38:00,47.3,46.0,30.35,West,276,0.0,-999.0,95,-99.99,,,0.00,weatherlink.com 1.10,2013-08-25 07:38:00,
2013-08-25 03:53:00,47.1,46.0,30.35,West,277,0.0,-999.0,95,-99.99,,,0.00,weatherlink.com 1.10,2013-08-25 07:53:00,
2013-08-25 04:08:00,47.0,46.0,30.36,West,278,0.0,-999.0,95,-99.99,,,0.00,weatherlink.com 1.10,2013-08-25 08:08:00,
2013-08-25 04:23:00,46.9,46.0,30.36,West,278,0.0,-999.0,95,-99.99,,,0.00,weatherlink.com 1.10,2013-08-25 08:23:00,
2013-08-25 04:38:00,47.3,46.0,30.36,West,279,0.0,-999.0,96,-99.99,,,0.00,weatherlink.com 1.10,2013-08-25 08:38:00,
2013-08-25 04:53:00,47.1,46.0,30.36,West,279,0.0,-999.0,95,-99.99,,,0.00,weatherlink.com 1.10,2013-08-25 08:53:00,
2013-08-25 05:08:00,46.7,45.0,30.36,West,280,0.0,-999.0,95,-99.99,,,0.00,weatherlink.com 1.10,2013-08-25 09:08:00,
2013-08-25 05:23:00,46.5,46.0,30.37,West,280,0.0,-999.0,96,-99.99,,,0.00,weatherlink.com 1.10,2013-08-25 09:23:00,
2013-08-25 05:38:00,46.1,45.0,30.38,West,280,0.0,-999.0,96,-99.99,,,0.00,weatherlink.com 1.10,2013-08-25 09:38:00,
2013-08-25 05:53:00,45.6,44.0,30.38,West,280,0.0,-999.0,95,-99.99,,,0.00,weatherlink.com 1.10,2013-08-25 09:53:00,
2013-08-25 06:08:00,45.8,45.0,30.38,West,281,0.0,-999.0,96,-99.99,,,0.00,weatherlink.com 1.10,2013-08-25 10:08:00,
2013-08-25 06:23:00,46.2,45.0,30.39,West,281,0.0,-999.0,96,-99.99,,,0.00,weatherlink.com 1.10,2013-08-25 10:23:00,
2013-08-25 06:38:00,47.1,46.0,30.39,West,281,0.0,-999.0,96,-99.99,,,0.00,weatherlink.com 1.10,2013-08-25 10:38:00,
2013-08-25 06:53:00,47.4,46.0,30.39,NNW,334,0.0,-999.0,96,-99.99,,,0.00,weatherlink.com 1.10,2013-08-25 10:53:00,
2013-08-25 07:09:00,47.4,46.0,30.39,WSW,249,0.0,-999.0,96,-99.99,,,0.00,weatherlink.com 1.10,2013-08-25 11:09:00,
2013-08-25 07:24:00,48.2,47.0,30.39,East,95,0.0,-999.0,96,-99.99,,,0.00,weatherlink.com 1.10,2013-08-25 11:24:00,
2013-08-25 07:39:00,48.5,48.0,30.39,East,95,0.0,-999.0,96,-99.99,,,0.00,weatherlink.com 1.10,2013-08-25 11:39:00,
2013-08-25 07:54:00,48.8,48.0,30.39,East,95,1.0,-999.0,96,-99.99,,,0.00,weatherlink.com 1.10,2013-08-25 11:54:00,
2013-08-25 08:09:00,49.2,48.0,30.39,East,82,2.0,-999.0,96,-99.99,,,0.00,weatherlink.com 1.10,2013-08-25 12:09:00,
2013-08-25 08:24:00,49.4,48.0,30.39,East,82,0.0,-999.0,96,-99.99,,,0.00,weatherlink.com 1.10,2013-08-25 12:24:00,
2013-08-25 08:39:00,51.1,50.0,30.39,East,82,0.0,-999.0,97,-99.99,,,0.00,weatherlink.com 1.10,2013-08-25 12:39:00,
2013-08-25 08:54:00,52.7,52.0,30.39,East,82,0.0,-999.0,97,-99.99,,,0.00,weatherlink.com 1.10,2013-08-25 12:54:00,
2013-08-25 09:09:00,54.0,53.0,30.39,East,82,0.0,-999.0,97,-99.99,,,0.00,weatherlink.com 1.10,2013-08-25 13:09:00,
2013-08-25 09:24:00,56.1,55.0,30.39,East,81,0.0,-999.0,96,-99.99,,,0.00,weatherlink.com 1.10,2013-08-25 13:24:00,
2013-08-25 09:39:00,58.6,55.0,30.38,East,81,0.0,-999.0,89,-99.99,,,0.00,weatherlink.com 1.10,2013-08-25 13:39:00,
2013-08-25 09:54:00,60.7,56.0,30.38,East,80,0.0,-999.0,85,-99.99,,,0.00,weatherlink.com 1.10,2013-08-25 13:54:00,
2013-08-25 10:09:00,62.0,56.0,30.37,East,81,0.0,-999.0,80,-99.99,,,0.00,weatherlink.com 1.10,2013-08-25 14:09:00,
2013-08-25 10:24:00,63.6,56.0,30.36,East,81,0.0,-999.0,75,-99.99,,,0.00,weatherlink.com 1.10,2013-08-25 14:24:00,
2013-08-25 10:39:00,64.8,55.0,30.36,East,81,0.0,-999.0,70,-99.99,,,0.00,weatherlink.com 1.10,2013-08-25 14:39:00,
2013-08-25 10:54:00,65.9,55.0,30.35,ESE,119,0.0,-999.0,68,-99.99,,,0.00,weatherlink.com 1.10,2013-08-25 14:54:00,
2013-08-25 11:09:00,67.9,59.0,30.34,ENE,68,0.0,-999.0,73,-99.99,,,0.00,weatherlink.com 1.10,2013-08-25 15:09:00,
2013-08-25 11:24:00,68.0,59.0,30.34,NNE,32,0.0,-999.0,72,-99.99,,,0.00,weatherlink.com 1.10,2013-08-25 15:24:00,
2013-08-25 11:39:00,68.7,60.0,30.33,ENE,59,2.0,-999.0,74,-99.99,,,0.00,weatherlink.com 1.10,2013-08-25 15:39:00,
2013-08-25 11:54:00,70.0,58.0,30.32,NE,43,0.0,-999.0,67,-99.99,,,0.00,weatherlink.com 1.10,2013-08-25 15:54:00,
2013-08-25 12:09:00,71.0,58.0,30.31,SE,125,0.0,-999.0,63,-99.99,,,0.00,weatherlink.com 1.10,2013-08-25 16:09:00,
2013-08-25 12:24:00,71.6,58.0,30.30,ENE,57,2.0,-999.0,63,-99.99,,,0.00,weatherlink.com 1.10,2013-08-25 16:24:00,
2013-08-25 12:40:00,72.8,60.0,30.29,SE,135,0.0,-999.0,64,-99.99,,,0.00,weatherlink.com 1.10,2013-08-25 16:40:00,
2013-08-25 12:55:00,72.8,60.0,30.29,SSE,164,0.0,-999.0,64,-99.99,,,0.00,weatherlink.com 1.10,2013-08-25 16:55:00,
2013-08-25 13:10:00,73.3,59.0,30.29,ESE,107,0.0,-999.0,62,-99.99,,,0.00,weatherlink.com 1.10,2013-08-25 17:10:00,
2013-08-25 13:25:00,73.8,63.0,30.29,ENE,71,0.0,-999.0,68,-99.99,,,0.00,weatherlink.com 1.10,2013-08-25 17:25:00,
2013-08-25 13:40:00,75.8,64.0,30.28,ENE,74,0.0,-999.0,67,-99.99,,,0.00,weatherlink.com 1.10,2013-08-25 17:40:00,
2013-08-25 13:55:00,76.0,61.0,30.28,South,189,0.0,-999.0,61,-99.99,,,0.00,weatherlink.com 1.10,2013-08-25 17:55:00,
2013-08-25 14:10:00,75.8,60.0,30.28,SW,225,0.0,-999.0,58,-99.99,,,0.00,weatherlink.com 1.10,2013-08-25 18:10:00,
2013-08-25 14:25:00,76.1,57.0,30.26,South,174,5.0,-999.0,52,-99.99,,,0.00,weatherlink.com 1.10,2013-08-25 18:25:00,
2013-08-25 14:40:00,75.8,57.0,30.26,NNE,15,0.0,-999.0,52,-99.99,,,0.00,weatherlink.com 1.10,2013-08-25 18:40:00,
2013-08-25 14:55:00,76.0,58.0,30.25,North,349,0.0,-999.0,54,-99.99,,,0.00,weatherlink.com 1.10,2013-08-25 18:55:00,
2013-08-25 15:10:00,77.5,61.0,30.25,SSE,152,4.0,-999.0,58,-99.99,,,0.00,weatherlink.com 1.10,2013-08-25 19:10:00,
2013-08-25 15:25:00,77.7,60.0,30.24,NNW,348,4.0,-999.0,55,-99.99,,,0.00,weatherlink.com 1.10,2013-08-25 19:25:00,
2013-08-25 15:40:00,77.8,56.0,30.24,SSW,205,0.0,-999.0,47,-99.99,,,0.00,weatherlink.com 1.10,2013-08-25 19:40:00,
2013-08-25 15:55:00,77.3,57.0,30.24,South,188,0.0,-999.0,49,-99.99,,,0.00,weatherlink.com 1.10,2013-08-25 19:55:00,
2013-08-25 16:10:00,77.3,57.0,30.23,South,189,0.0,-999.0,50,-99.99,,,0.00,weatherlink.com 1.10,2013-08-25 20:10:00,
2013-08-25 16:25:00,77.3,59.0,30.23,SSW,205,0.0,-999.0,53,-99.99,,,0.00,weatherlink.com 1.10,2013-08-25 20:25:00,
2013-08-25 16:40:00,76.4,57.0,30.22,South,186,0.0,-999.0,52,-99.99,,,0.00,weatherlink.com 1.10,2013-08-25 20:40:00,
2013-08-25 16:55:00,76.3,59.0,30.21,WSW,239,0.0,-999.0,56,-99.99,,,0.00,weatherlink.com 1.10,2013-08-25 20:55:00,
2013-08-25 17:10:00,75.7,56.0,30.21,WSW,238,0.0,-999.0,51,-99.99,,,0.00,weatherlink.com 1.10,2013-08-25 21:10:00,
2013-08-25 17:25:00,75.2,57.0,30.20,WSW,249,0.0,-999.0,54,-99.99,,,0.00,weatherlink.com 1.10,2013-08-25 21:25:00,
2013-08-25 17:40:00,73.9,57.0,30.20,WSW,253,0.0,-999.0,55,-99.99,,,0.00,weatherlink.com 1.10,2013-08-25 21:40:00,
2013-08-25 17:55:00,73.3,57.0,30.19,West,263,0.0,-999.0,56,-99.99,,,0.00,weatherlink.com 1.10,2013-08-25 21:55:00,
2013-08-25 18:10:00,72.3,58.0,30.19,WSW,251,0.0,-999.0,61,-99.99,,,0.00,weatherlink.com 1.10,2013-08-25 22:10:00,
2013-08-25 18:25:00,71.9,57.0,30.18,WSW,251,0.0,-999.0,60,-99.99,,,0.00,weatherlink.com 1.10,2013-08-25 22:25:00,
2013-08-25 18:40:00,70.8,57.0,30.18,West,267,0.0,-999.0,62,-99.99,,,0.00,weatherlink.com 1.10,2013-08-25 22:40:00,
2013-08-25 18:55:00,69.9,58.0,30.18,WSW,238,0.0,-999.0,67,-99.99,,,0.00,weatherlink.com 1.10,2013-08-25 22:55:00,
2013-08-25 19:10:00,67.8,58.0,30.18,SW,233,0.0,-999.0,71,-99.99,,,0.00,weatherlink.com 1.10,2013-08-25 23:10:00,
2013-08-25 19:25:00,67.1,58.0,30.18,SW,234,0.0,-999.0,72,-99.99,,,0.00,weatherlink.com 1.10,2013-08-25 23:25:00,
2013-08-25 19:40:00,66.3,58.0,30.17,SW,230,0.0,-999.0,75,-99.99,,,0.00,weatherlink.com 1.10,2013-08-25 23:40:00,
2013-08-25 19:55:00,65.3,58.0,30.16,SW,231,0.0,-999.0,77,-99.99,,,0.00,weatherlink.com 1.10,2013-08-25 23:55:00,
2013-08-25 20:10:00,64.1,59.0,30.16,SW,230,0.0,-999.0,82,-99.99,,,0.00,weatherlink.com 1.10,2013-08-26 00:10:00,
2013-08-25 20:25:00,63.1,59.0,30.15,SW,231,0.0,-999.0,85,-99.99,,,0.00,weatherlink.com 1.10,2013-08-26 00:25:00,
2013-08-25 20:41:00,63.5,57.0,30.15,SW,235,0.0,-999.0,79,-99.99,,,0.00,weatherlink.com 1.10,2013-08-26 00:41:00,
2013-08-25 20:56:00,64.0,58.0,30.16,SW,235,0.0,-999.0,80,-99.99,,,0.00,weatherlink.com 1.10,2013-08-26 00:56:00,
2013-08-25 21:11:00,63.5,58.0,30.16,SW,235,0.0,-999.0,82,-99.99,,,0.00,weatherlink.com 1.10,2013-08-26 01:11:00,
2013-08-25 21:26:00,63.4,58.0,30.17,SW,235,0.0,-999.0,82,-99.99,,,0.00,weatherlink.com 1.10,2013-08-26 01:26:00,
2013-08-25 21:41:00,62.9,57.0,30.17,SW,235,0.0,-999.0,82,-99.99,,,0.00,weatherlink.com 1.10,2013-08-26 01:41:00,
2013-08-25 21:56:00,62.8,58.0,30.16,SW,234,0.0,-999.0,84,-99.99,,,0.00,weatherlink.com 1.10,2013-08-26 01:56:00,
2013-08-25 22:11:00,62.4,58.0,30.16,SW,234,0.0,-999.0,85,-99.99,,,0.00,weatherlink.com 1.10,2013-08-26 02:11:00,
2013-08-25 22:26:00,62.2,58.0,30.16,SW,235,0.0,-999.0,86,-99.99,,,0.00,weatherlink.com 1.10,2013-08-26 02:26:00,
2013-08-25 22:41:00,62.3,58.0,30.15,SW,235,0.0,-999.0,86,-99.99,,,0.00,weatherlink.com 1.10,2013-08-26 02:41:00,
2013-08-25 22:56:00,62.3,58.0,30.16,SW,235,0.0,-999.0,86,-99.99,,,0.00,weatherlink.com 1.10,2013-08-26 02:56:00,
2013-08-25 23:11:00,62.2,58.0,30.15,SW,235,0.0,-999.0,86,-99.99,,,0.00,weatherlink.com 1.10,2013-08-26 03:11:00,
2013-08-25 23:26:00,62.1,58.0,30.15,SW,235,0.0,-999.0,87,-99.99,,,0.00,weatherlink.com 1.10,2013-08-26 03:26:00,
2013-08-25 23:41:00,61.5,58.0,30.16,SW,234,0.0,-999.0,89,-99.99,,,0.01,weatherlink.com 1.10,2013-08-26 03:41:00,
2013-08-25 23:56:00,61.4,59.0,30.17,SW,235,0.0,-999.0,91,-99.99,,,0.02,weatherlink.com 1.10,2013-08-26 03:56:00,